STARLINK-2022, 47643

Orbit data source: Space-Track

STARLINK-2022, 47643 is a payload satellite owned by SpaceX/Seattle (US) in LEO that was launched on Tue, 16 Feb 2021 UTC via an FALCON 9 launch vehicle from the Air Force Eastern Test Range (AFETR). Payload-class satellites include a variety of spacecraft equipped with specific instruments for various scientific and technological missions. These include communications satellites like Starlink; space stations such as the ISS; scientific satellites like the Hubble; Earth observation satellites from companies like Planet Labs, Umbra, and HawkEye 360; GPS; miniature CubeSats for education and research; and military/defense satellites.

Loading next visibility...
Identifier
47643, 2021-012Z
Orbit
LEO
Country
Flag of USUS
Related business
Manufacturer
SpaceX/Seattle
Mission
Partially operational Commercial Communications
Bus & Motor
STARLINK, Unknown motor
Mass
260 kg wet, ~248 kg dry
Launch date (UTC)
2021-02-16 (5 years ago)
Launch vehicle
FALCON 9
Launch site
Air Force Eastern Test Range (AFETR)
Object type
Payload
Rocket body
Debris
Shape & HBR
Box + 1 Pan, 10.1 m
Radar Cross Section
13.562 m², Large (>1 m²)

Expand to show TLE details & history
Last TLE update: 9 hours ago

TLE from 9 hours ago
0 STARLINK-2022
1 47643U 21012Z   25343.52516302  .00167886  00000-0  28163-2 0  9999
2 47643  53.0270  63.0559 0004828 272.9937  87.0519 15.50728962267147
Epoch: 2025-12-09T12:36Z
TLE epoch observation values (Epoch: 2025-12-09T12:36:14.084Z)
Latitude
Longitude
155.48862°
Altitude
415.323 km
Speed
7.663 km/s
True Right ascension
04h 12m 13s
True Declination
0° 00' 00"
Sunlit
Object was in full shadow at epoch
Visualization orbit readout
Latitude
Unknown
Longitude
Unknown
Altitude
Unknown
Speed
Unknown
Apparent Right ascension
Unknown
Apparent Declination
Unknown
Sunlit
N/A
Visualization observer readout
Local Sidereal Time
19:50:33
Azimuth
Unknown
Elevation
Unknown
Doppler factor
Unknown
Orbital elements
Apogee altitude
418.156 km
Perigee altitude
411.597 km
Semi-major axis
6,793.014 km
Eccentricity
0.00048
Inclination
53.027°
RAAN
63.0559°
Arg. of periapsis
272.9937°
True anomaly
87.10715°
Mean anomaly
87.0519°
Eccentric anomaly
87.07953°
Mean motion
3.87659 °/min
Orbital period
92.87 mins
BSTAR
0.0028163
Loading maneuver chart data...
Computing Atmospheric mass density...
Loading historical data...
Loading historical data...
Loading historical data...
Loading historical data...
Loading historical data...
Loading historical data...
Loading historical data...

Documentation

Showing up to 5 results
|